KA5FVT Weather Reports


Display with metric or nautical units.
time (UTC)temp
F
wind
direction
speed
MPH
gust
MPH
rain 1hr
in
rain 24hr
in
rain mn
in
humidity
%
barometer
mb
20260505195426 83 167 1.0 2.0 0.00 0.00 0.00 75 1007.9
20260505194926 83 148 1.0 2.0 0.00 0.00 0.00 76 1008.0
20260505194427 83 293 0.0 2.0 0.00 0.00 0.00 77 1008.1
20260505193927 83 293 0.0 6.0 0.00 0.00 0.00 75 1008.0
20260505193427 83 186 1.0 2.0 0.00 0.00 0.00 76 1008.1
20260505192926 83 148 0.0 1.0 0.00 0.00 0.00 77 1008.3
20260505192429 83 148 0.0 2.0 0.00 0.00 0.00 77 1008.3
20260505191927 83 128 1.0 2.0 0.00 0.00 0.00 77 1008.2
20260505191430 82 172 0.0 2.0 0.00 0.00 0.00 77 1008.2
20260505190926 82 173 1.0 1.0 0.00 0.00 0.00 77 1008.3
20260505190426 82 170 0.0 2.0 0.00 0.00 0.00 75 1008.3
20260505185926 82 170 0.0 4.0 0.00 0.00 0.00 75 1008.3
20260505185426 82 268 0.0 3.0 0.00 0.00 0.00 77 1008.4
20260505184926 82 289 2.0 2.0 0.00 0.00 0.00 78 1008.5
20260505184427 82 185 1.0 2.0 0.00 0.00 0.00 77 1008.5
20260505183927 82 184 0.0 3.0 0.00 0.00 0.00 77 1008.5
20260505183427 82 175 1.0 4.0 0.00 0.00 0.00 77 1008.6
20260505182926 82 184 1.0 4.0 0.00 0.00 0.00 78 1008.6
20260505182426 81 185 0.0 2.0 0.00 0.00 0.00 79 1008.7
20260505181926 81 175 0.0 2.0 0.00 0.00 0.00 79 1008.8
20260505181426 81 176 1.0 4.0 0.00 0.00 0.00 79 1008.7
20260505180930 80 190 1.0 2.0 0.00 0.00 0.00 80 1008.7
20260505180426 80 185 1.0 2.0 0.00 0.00 0.00 80 1008.7
20260505175926 80 196 1.0 3.0 0.00 0.00 0.00 80 1008.9
20260505175427 80 215 0.0 2.0 0.00 0.00 0.00 79 1008.9
20260505174930 80 215 0.0 2.0 0.00 0.00 0.00 80 1008.8
20260505174430 80 215 1.0 3.0 0.00 0.00 0.00 80 1008.9
20260505173927 80 215 1.0 4.0 0.00 0.00 0.00 80 1009.0
20260505173427 80 192 0.0 1.0 0.00 0.00 0.00 81 1008.9
20260505172929 80 192 1.0 1.0 0.00 0.00 0.00 80 1009.0
20260505172427 80 192 0.0 1.0 0.00 0.00 0.00 81 1009.0
20260505171926 79 192 2.0 2.0 0.00 0.00 0.00 82 1009.0
20260505171426 79 355 0.0 4.0 0.00 0.00 0.00 83 1009.0
20260505170929 79 198 0.0 2.0 0.00 0.00 0.00 83 1009.1
20260505170427 78 182 0.0 2.0 0.00 0.00 0.00 84 1009.2
20260505165927 78 179 1.0 3.0 0.00 0.00 0.00 84 1009.3
20260505165427 78 61 2.0 3.0 0.00 0.00 0.00 84 1009.3
20260505164926 78 303 0.0 2.0 0.00 0.00 0.00 84 1009.3
20260505164426 78 303 1.0 2.0 0.00 0.00 0.00 84 1009.3
20260505163929 78 309 0.0 0.0 0.00 0.00 0.00 84 1009.2
20260505163427 78 309 0.0 1.0 0.00 0.00 0.00 84 1009.3
20260505162926 78 309 0.0 2.0 0.00 0.00 0.00 83 1009.2
20260505162428 78 251 0.0 2.0 0.00 0.00 0.00 84 1009.1
20260505161930 78 251 0.0 2.0 0.00 0.00 0.00 84 1009.2
20260505161427 78 251 0.0 2.0 0.00 0.00 0.00 84 1009.2
20260505160926 78 264 1.0 2.0 0.00 0.00 0.00 84 1009.1
20260505160427 78 237 1.0 2.0 0.00 0.00 0.00 84 1009.2
20260505152930 77 304 0.0 1.0 0.00 0.00 0.00 85 1009.0
20260505152426 77 304 1.0 2.0 0.00 0.00 0.00 85 1009.0
20260505151927 77 222 0.0 1.0 0.00 0.00 0.00 84 1008.9
20260505151429 77 222 0.0 1.0 0.00 0.00 0.00 84 1008.9
20260505150927 77 222 0.0 1.0 0.00 0.00 0.00 85 1008.9
20260505150426 77 222 0.0 1.0 0.00 0.00 0.00 85 1008.9
20260505140426 75 119 1.0 2.0 0.00 0.00 0.00 87 1008.4
20260505124926 73 88 1.0 1.0 0.00 0.00 0.00 90 1008.1
20260505124426 73 88 0.0 0.0 0.00 0.00 0.00 90 1008.1
20260505123927 73 88 0.0 0.0 0.00 0.00 0.00 90 1008.2
20260505123427 73 88 0.0 0.0 0.00 0.00 0.00 90 1008.4
20260505122926 72 88 0.0 0.0 0.00 0.00 0.00 90 1008.0
20260505122427 72 88 0.0 0.0 0.00 0.00 0.00 90 1008.1
20260505121926 72 88 0.0 0.0 0.00 0.00 0.00 90 1008.1
20260505121427 72 88 0.0 0.0 0.00 0.00 0.00 90 1008.1
20260505120926 72 88 0.0 0.0 0.00 0.00 0.00 90 1008.0
20260505120426 72 88 0.0 0.0 0.00 0.00 0.00 90 1007.9
20260505115930 72 88 0.0 0.0 0.00 0.00 0.00 90 1007.9
20260505115426 72 88 0.0 0.0 0.00 0.00 0.00 90 1007.8
20260505114929 72 88 0.0 0.0 0.00 0.00 0.00 90 1007.8
20260505114426 72 88 0.0 0.0 0.00 0.00 0.00 90 1007.9
20260505113926 72 88 0.0 0.0 0.00 0.00 0.00 90 1008.2
20260505113429 72 88 0.0 0.0 0.00 0.00 0.00 90 1008.3
20260505112926 72 88 0.0 0.0 0.00 0.00 0.00 90 1008.1
20260505112427 72 88 0.0 0.0 0.00 0.00 0.00 90 1007.9
20260505111926 72 88 0.0 0.0 0.00 0.00 0.00 90 1007.9
20260505111429 72 88 0.0 1.0 0.00 0.00 0.00 90 1007.9
20260505110927 72 88 0.0 1.0 0.00 0.00 0.00 90 1007.9
20260505110429 72 88 0.0 0.0 0.00 0.00 0.00 90 1007.8
20260505101926 71 67 0.0 0.0 0.00 0.00 0.00 89 1008.0
20260505101426 71 67 0.0 0.0 0.00 0.00 0.00 89 1008.1
20260505100926 71 67 0.0 0.0 0.00 0.00 0.00 89 1008.2
20260505100427 71 67 0.0 0.0 0.00 0.00 0.00 89 1008.3
20260505095927 72 67 0.0 0.0 0.00 0.00 0.00 88 1008.4
20260505095426 72 67 0.0 0.0 0.00 0.00 0.00 88 1008.3
20260505094931 71 67 0.0 0.0 0.00 0.00 0.00 88 1008.2
20260505094426 72 67 0.0 0.0 0.00 0.00 0.00 88 1008.1
20260505093926 72 66 0.0 1.0 0.00 0.00 0.00 88 1008.3
20260505093426 72 66 0.0 1.0 0.00 0.00 0.00 88 1008.4
20260505092926 72 66 0.0 1.0 0.00 0.00 0.00 88 1008.4
20260505092429 72 66 0.0 1.0 0.00 0.00 0.00 88 1008.6
20260505091927 72 66 0.0 1.0 0.00 0.00 0.00 88 1008.5
20260505091427 71 66 0.0 0.0 0.00 0.00 0.00 88 1008.4
20260505090926 71 66 0.0 0.0 0.00 0.00 0.00 88 1008.3
20260505090426 71 66 0.0 1.0 0.00 0.00 0.00 88 1008.4
20260505085929 71 66 0.0 1.0 0.00 0.00 0.00 88 1008.2
20260505085426 71 66 0.0 1.0 0.00 0.00 0.00 87 1008.4
20260505084926 71 66 0.0 0.0 0.00 0.00 0.00 87 1008.4
20260505084427 71 66 0.0 0.0 0.00 0.00 0.00 87 1008.5
20260505083930 71 66 0.0 1.0 0.00 0.00 0.00 87 1008.4
20260505083427 72 66 0.0 1.0 0.00 0.00 0.00 87 1008.6
20260505082926 71 66 0.0 0.0 0.00 0.00 0.00 87 1008.7
20260505082427 72 66 0.0 1.0 0.00 0.00 0.00 87 1008.7
20260505081926 72 66 0.0 1.0 0.00 0.00 0.00 87 1008.8
20260505081426 72 66 0.0 1.0 0.00 0.00 0.00 86 1008.8
20260505080927 72 66 0.0 1.0 0.00 0.00 0.00 86 1008.8
20260505080426 72 66 0.0 1.0 0.00 0.00 0.00 86 1008.9
20260505075926 72 66 0.0 0.0 0.00 0.00 0.00 86 1009.0
20260505075429 72 66 0.0 0.0 0.00 0.00 0.00 86 1009.0
20260505074926 72 66 0.0 0.0 0.00 0.00 0.00 86 1009.0
20260505074430 72 66 0.0 1.0 0.00 0.00 0.00 85 1009.0
20260505073926 72 66 0.0 0.0 0.00 0.00 0.00 85 1009.0
20260505073427 72 66 0.0 0.0 0.00 0.00 0.00 85 1009.0
20260505072929 72 66 0.0 0.0 0.00 0.00 0.00 85 1009.1
20260505072426 72 66 0.0 1.0 0.00 0.00 0.00 85 1009.2
20260505071927 72 66 1.0 1.0 0.00 0.00 0.00 85 1009.3
20260505071430 72 66 0.0 1.0 0.00 0.00 0.00 84 1009.4
20260505070927 72 54 0.0 1.0 0.00 0.00 0.00 84 1009.4
20260505070426 72 47 0.0 2.0 0.00 0.00 0.00 84 1009.5
20260505065926 72 203 0.0 2.0 0.00 0.00 0.00 84 1009.5
20260505065426 72 203 0.0 1.0 0.00 0.00 0.00 84 1009.5
20260505064929 72 203 0.0 1.0 0.00 0.00 0.00 84 1009.4
20260505064427 72 203 0.0 2.0 0.00 0.00 0.00 84 1009.4
20260505063927 72 203 0.0 1.0 0.00 0.00 0.00 83 1009.5
20260505063426 72 203 0.0 1.0 0.00 0.00 0.00 83 1009.5
20260505062926 72 203 0.0 1.0 0.00 0.00 0.00 83 1009.6
20260505062429 72 203 0.0 1.0 0.00 0.00 0.00 83 1009.8
20260505061926 72 203 0.0 1.0 0.00 0.00 0.00 83 1009.9
20260505061427 72 203 0.0 1.0 0.00 0.00 0.00 82 1010.0
20260505060926 72 203 0.0 1.0 0.00 0.00 0.00 82 1010.0
20260505060426 72 203 0.0 1.0 0.00 0.00 0.00 82 1009.9
20260505055926 72 203 0.0 2.0 0.00 0.00 0.00 82 1010.0
20260505055426 72 203 0.0 1.0 0.00 0.00 0.00 82 1009.9
20260505054927 72 203 0.0 1.0 0.00 0.00 0.00 82 1010.0
20260505054429 72 203 0.0 1.0 0.00 0.00 0.00 81 1010.0
20260505053926 72 203 0.0 0.0 0.00 0.00 0.00 81 1010.1
20260505053427 72 203 0.0 1.0 0.00 0.00 0.00 81 1010.1
20260505052926 72 203 0.0 1.0 0.00 0.00 0.00 81 1010.2
20260505052426 72 203 0.0 2.0 0.00 0.00 0.00 81 1010.2
20260505051926 72 203 0.0 1.0 0.00 0.00 0.00 80 1010.2
20260505051430 72 203 0.0 1.0 0.00 0.00 0.00 80 1010.2
20260505050927 72 203 1.0 1.0 0.00 0.00 0.00 80 1010.2
20260505050426 72 203 0.0 1.0 0.00 0.00 0.00 79 1010.3
20260505041426 73 203 0.0 2.0 0.00 0.00 0.00 77 1010.2
20260505040927 73 211 1.0 2.0 0.00 0.00 0.00 77 1010.3
20260505040427 73 211 1.0 2.0 0.00 0.00 0.00 77 1010.5
20260505035926 73 211 0.0 2.0 0.00 0.00 0.00 76 1010.6
20260505035426 74 211 1.0 2.0 0.00 0.00 0.00 76 1010.5
20260505034926 74 211 1.0 2.0 0.00 0.00 0.00 76 1010.5
20260505034426 74 211 0.0 2.0 0.00 0.00 0.00 76 1010.7
20260505033926 74 211 1.0 2.0 0.00 0.00 0.00 75 1010.9
20260505033429 74 211 0.0 2.0 0.00 0.00 0.00 75 1011.0
20260505032927 74 211 1.0 3.0 0.00 0.00 0.00 75 1010.9
20260505032427 74 211 1.0 3.0 0.00 0.00 0.00 75 1010.8
20260505031927 74 211 0.0 2.0 0.00 0.00 0.00 75 1010.7
20260505031426 74 213 1.0 2.0 0.00 0.00 0.00 74 1010.7
20260505030929 74 213 1.0 2.0 0.00 0.00 0.00 74 1010.6
20260505030426 74 216 1.0 2.0 0.00 0.00 0.00 74 1010.6
20260505025926 74 168 0.0 4.0 0.00 0.00 0.00 74 1010.3
20260505025427 74 180 1.0 2.0 0.00 0.00 0.00 74 1010.5
20260505024926 75 180 1.0 2.0 0.00 0.00 0.00 73 1010.5
20260505024426 75 180 1.0 2.0 0.00 0.00 0.00 73 1010.7
20260505023926 75 180 1.0 2.0 0.00 0.00 0.00 73 1010.6
20260505023429 75 187 1.0 2.0 0.00 0.00 0.00 73 1010.6
20260505022926 75 187 1.0 2.0 0.00 0.00 0.00 72 1010.3
20260505022426 75 169 0.0 2.0 0.00 0.00 0.00 72 1010.3
20260505021927 75 169 1.0 2.0 0.00 0.00 0.00 72 1010.2
20260505021426 75 170 1.0 2.0 0.00 0.00 0.00 72 1010.3
20260505020926 75 170 1.0 2.0 0.00 0.00 0.00 72 1010.5
20260505020426 75 166 1.0 1.0 0.00 0.00 0.00 72 1010.3
20260505015926 75 166 1.0 1.0 0.00 0.00 0.00 72 1010.1
20260505015426 76 166 0.0 2.0 0.00 0.00 0.00 71 1010.1
20260505014926 76 167 2.0 4.0 0.00 0.00 0.00 71 1010.0
20260505014427 76 171 0.0 2.0 0.00 0.00 0.00 71 1010.1
20260505013926 76 172 1.0 2.0 0.00 0.00 0.00 71 1010.1
20260505013426 76 172 1.0 2.0 0.00 0.00 0.00 71 1010.0
20260505012926 76 171 1.0 2.0 0.00 0.00 0.00 71 1009.9
20260505012429 76 171 0.0 2.0 0.00 0.00 0.00 70 1009.9
20260505011929 76 171 1.0 1.0 0.00 0.00 0.00 70 1009.9
20260505011426 76 171 1.0 2.0 0.00 0.00 0.00 70 1010.0
20260505010927 76 171 0.0 2.0 0.00 0.00 0.00 70 1010.0
20260505010429 76 171 0.0 1.0 0.00 0.00 0.00 70 1010.0
20260505005926 76 171 0.0 1.0 0.00 0.00 0.00 70 1009.9
20260505005429 77 171 1.0 2.0 0.00 0.00 0.00 69 1009.9
20260505004926 77 171 0.0 2.0 0.00 0.00 0.00 69 1009.9
20260505004426 77 171 0.0 1.0 0.00 0.00 0.00 69 1009.8
20260505003929 77 171 0.0 1.0 0.00 0.00 0.00 68 1009.8
20260505003431 77 171 0.0 2.0 0.00 0.00 0.00 68 1009.7
20260505002926 77 171 1.0 1.0 0.00 0.00 0.00 68 1009.6
20260505002429 78 171 0.0 1.0 0.00 0.00 0.00 68 1009.7
20260505001930 78 171 0.0 2.0 0.00 0.00 0.00 67 1009.9
20260505001426 78 171 0.0 1.0 0.00 0.00 0.00 67 1009.9
20260505000926 78 171 0.0 2.0 0.00 0.00 0.00 67 1010.0
20260505000428 78 171 0.0 2.0 0.00 0.00 0.00 66 1010.0
20260504235927 78 171 1.0 2.0 0.00 0.00 0.00 66 1010.0
20260504235426 78 173 1.0 2.0 0.00 0.00 0.00 66 1010.0
20260504234926 78 145 0.0 2.0 0.00 0.00 0.00 66 1009.9
20260504234426 78 139 0.0 2.0 0.00 0.00 0.00 65 1009.9
20260504233927 79 173 2.0 2.0 0.00 0.00 0.00 65 1010.1
20260504233429 79 179 1.0 2.0 0.00 0.00 0.00 65 1010.2
20260504232926 79 180 1.0 2.0 0.00 0.00 0.00 65 1010.2
20260504232426 79 180 1.0 2.0 0.00 0.00 0.00 65 1010.1
20260504231926 79 180 2.0 2.0 0.00 0.00 0.00 65 1010.1
20260504231426 79 180 0.0 2.0 0.00 0.00 0.00 64 1010.2
20260504230926 79 180 1.0 2.0 0.00 0.00 0.00 64 1010.3
20260504230427 80 174 1.0 2.0 0.00 0.00 0.00 64 1010.5
20260504225929 80 187 1.0 1.0 0.00 0.00 0.00 65 1010.4
20260504225426 80 187 0.0 2.0 0.00 0.00 0.00 63 1010.4
20260504224929 80 189 1.0 2.0 0.00 0.00 0.00 63 1010.4
20260504224429 80 178 1.0 2.0 0.00 0.00 0.00 63 1010.5
20260504223926 80 178 0.0 4.0 0.00 0.00 0.00 62 1010.6
20260504223427 80 197 0.0 2.0 0.00 0.00 0.00 62 1010.6
20260504222926 80 197 1.0 2.0 0.00 0.00 0.00 61 1010.6
20260504222426 80 197 1.0 2.0 0.00 0.00 0.00 60 1010.6
20260504221926 80 198 0.0 2.0 0.00 0.00 0.00 60 1010.7
20260504221429 81 197 1.0 2.0 0.00 0.00 0.00 61 1010.7
20260504220926 81 197 1.0 2.0 0.00 0.00 0.00 59 1010.8
20260504220426 81 197 1.0 2.0 0.00 0.00 0.00 58 1010.8
20260504215926 81 197 1.0 2.0 0.00 0.00 0.00 59 1010.8
20260504215427 81 198 0.0 1.0 0.00 0.00 0.00 58 1010.9
20260504214926 81 198 0.0 2.0 0.00 0.00 0.00 58 1011.0
20260504214426 81 229 0.0 2.0 0.00 0.00 0.00 58 1011.0
20260504213926 81 220 1.0 2.0 0.00 0.00 0.00 58 1010.9
20260504213426 81 220 1.0 2.0 0.00 0.00 0.00 57 1011.0
20260504212927 82 221 1.0 1.0 0.00 0.00 0.00 56 1011.2
20260504212427 82 221 0.0 2.0 0.00 0.00 0.00 56 1011.1
20260504211926 82 221 0.0 2.0 0.00 0.00 0.00 56 1011.3
20260504211426 82 221 1.0 2.0 0.00 0.00 0.00 56 1011.3
20260504210929 82 221 2.0 2.0 0.00 0.00 0.00 56 1011.4
20260504210426 82 221 1.0 2.0 0.00 0.00 0.00 56 1011.3
20260504205926 82 221 0.0 2.0 0.00 0.00 0.00 57 1011.4
20260504205426 82 221 1.0 2.0 0.00 0.00 0.00 56 1011.6
20260504204927 82 227 1.0 2.0 0.00 0.00 0.00 57 1011.7
20260504204426 82 295 2.0 3.0 0.00 0.00 0.00 56 1011.6
20260504203926 82 261 1.0 3.0 0.00 0.00 0.00 56 1011.8
20260504203426 82 186 1.0 3.0 0.00 0.00 0.00 56 1011.7
20260504202926 82 186 1.0 2.0 0.00 0.00 0.00 56 1011.9
20260504202427 82 183 0.0 3.0 0.00 0.00 0.00 56 1012.1
20260504201927 82 223 1.0 2.0 0.00 0.00 0.00 55 1012.1
20260504201426 82 223 2.0 2.0 0.00 0.00 0.00 55 1012.2
20260504200926 82 185 0.0 2.0 0.00 0.00 0.00 56 1012.3
20260504200426 82 185 2.0 2.0 0.00 0.00 0.00 55 1012.3
20260504195926 82 5 0.0 1.0 0.00 0.00 0.00 56 1012.4